DW8953 Weather Reports


Display with metric or nautical units.
time (UTC)temp
F
wind
direction
speed
MPH
gust
MPH
rain 1hr
in
rain 24hr
in
rain mn
in
humidity
%
barometer
mb
20260503214557 69 0 0.0 0.0 0.00 0.00 0.00 44 1018.4
20260503213052 68 0 0.0 0.0 0.00 0.00 0.00 46 1018.4
20260503211551 68 0 0.0 0.0 0.00 0.00 0.00 42 1018.7
20260503210052 68 0 0.0 0.0 0.00 0.00 0.00 43 1019.0
20260503204551 68 0 0.0 0.0 0.00 0.00 0.00 42 1019.2
20260503203112 67 0 0.0 0.0 0.00 0.00 0.00 45 1019.3
20260503201554 67 0 0.0 0.0 0.00 0.00 0.00 47 1019.5
20260503200053 66 0 0.0 0.0 0.00 0.00 0.00 47 1020.0
20260503194557 65 0 0.0 0.0 0.00 0.00 0.00 51 1020.2
20260503193055 66 0 0.0 0.0 0.00 0.00 0.00 47 1020.5
20260503191557 66 0 0.0 0.0 0.00 0.00 0.00 56 1020.7
20260503190103 65 0 0.0 0.0 0.00 0.00 0.00 51 1020.8
20260503184552 65 0 0.0 0.0 0.00 0.00 0.00 54 1020.9
20260503183049 64 0 0.0 0.0 0.00 0.00 0.00 53 1021.0
20260503181558 64 0 0.0 0.0 0.00 0.00 0.00 55 1021.4
20260503180056 64 0 0.0 0.0 0.00 0.00 0.00 50 1021.2
20260503174548 64 0 0.0 0.0 0.00 0.00 0.00 53 1021.5
20260503173052 63 0 0.0 0.0 0.00 0.00 0.00 57 1021.8
20260503171549 62 0 0.0 0.0 0.00 0.00 0.00 53 1021.9
20260503100104 43 0 0.0 0.0 0.00 0.00 0.00 57 1021.0
20260503081557 44 0 0.0 0.0 0.00 0.00 0.00 65 1020.8
20260503071553 46 0 0.0 0.0 0.00 0.00 0.00 69 1020.1
20260503060116 48 0 0.0 0.0 0.00 0.00 0.00 72 1019.9
20260503054613 49 0 0.0 0.0 0.00 0.00 0.00 72 1019.9
20260503053049 49 0 0.0 0.0 0.00 0.00 0.00 73 1019.7
20260503051551 49 0 0.0 0.0 0.00 0.00 0.00 73 1019.7
20260503050048 50 0 0.0 0.0 0.00 0.00 0.00 74 1019.8
20260503044553 50 0 0.0 0.0 0.00 0.00 0.00 74 1019.6
20260503043050 50 0 0.0 0.0 0.00 0.00 0.00 74 1019.6
20260503041548 51 0 0.0 0.0 0.00 0.00 0.00 73 1019.6
20260503040050 52 0 0.0 0.0 0.00 0.00 0.00 72 1019.4
20260503034553 52 0 0.0 0.0 0.00 0.00 0.00 72 1019.4
20260503033051 52 0 0.0 0.0 0.00 0.00 0.00 71 1019.4
20260503031550 53 0 0.0 0.0 0.00 0.00 0.00 71 1019.3
20260503030055 54 0 0.0 0.0 0.00 0.00 0.00 69 1019.1
20260503024552 54 0 0.0 0.0 0.00 0.00 0.00 68 1018.8
20260503023053 55 0 0.0 0.0 0.00 0.00 0.00 67 1018.7
20260503021553 56 0 0.0 0.0 0.00 0.00 0.00 66 1018.5
20260503020053 56 0 0.0 0.0 0.00 0.00 0.00 65 1018.4
20260503014555 56 0 0.0 0.0 0.00 0.00 0.00 63 1018.0
20260503013047 58 0 0.0 0.0 0.00 0.00 0.00 58 1017.4
20260503011546 59 0 0.0 0.0 0.00 0.00 0.00 56 1017.1
20260503010048 60 0 0.0 0.0 0.00 0.00 0.00 52 1016.8
20260503004547 61 0 0.0 0.0 0.00 0.00 0.00 49 1016.7
20260503003051 62 0 0.0 0.0 0.00 0.00 0.00 45 1016.7
20260503001549 63 0 0.0 0.0 0.00 0.00 0.00 44 1016.3
20260503000047 63 0 0.0 0.0 0.00 0.00 0.00 42 1016.2
20260502234556 64 0 0.0 0.0 0.00 0.00 0.00 42 1016.1
20260502233049 64 0 0.0 0.0 0.00 0.00 0.00 41 1015.9
20260502231557 64 0 0.0 0.0 0.00 0.00 0.00 41 1015.8
20260502230052 65 0 0.0 0.0 0.00 0.00 0.00 40 1016.0
20260502224547 66 0 0.0 0.0 0.00 0.00 0.00 38 1016.0
20260502223047 67 0 0.0 0.0 0.00 0.00 0.00 38 1015.9
20260502221551 67 0 0.0 0.0 0.00 0.00 0.00 39 1016.0
20260502220058 67 0 0.0 0.0 0.00 0.00 0.00 38 1015.7